Regional Weather Roundup
Issued by NWS

Home | Current Version | Previous Version | Graphics & Text | Print | Product List | Glossary Off
Versions: 1 2 3 4 5 6 7 8 9 10 11 12 13 14 15 16 17 18 19 20 21 22 23 24 25 26 27 28 29 30 31 32 33 34 35 36 37 38 39 40 41 42 43 44 45 46 47 48 49 50

000
ASUS43 KTOP 031359
RWRKS

WEATHER ROUNDUP FOR KANSAS
NATIONAL WEATHER SERVICE GOODLAND KS
900 AM CDT MON AUG 03 2015

NOTE:  "FAIR" INDICATES FEW OR NO CLOUDS BELOW 12,000 FEET WITH NO
SIGNIFICANT WEATHER AND/OR OBSTRUCTIONS TO VISIBILITY.

KSZ001>006-013>018-027>032-041>047-031500-
NORTHWEST KANSAS

CITY           SKY/WX    TMP DP  RH WIND       PRES   REMARKS
GOODLAND       MOSUNNY   72  61  68 E3        30.03S
HAYS           SUNNY     75  63  64 SE5       29.96R
HILL CITY      SUNNY     74  61  63 E6        29.97S
RUSSELL        SUNNY     75  68  78 S5        29.94S
$$

KSZ061>065-074>080-084>089-031500-
SOUTHWEST KANSAS

CITY           SKY/WX    TMP DP  RH WIND       PRES   REMARKS
DODGE CITY     MOSUNNY   73  66  78 S7        29.98R
ELKHART          N/A     75  64  68 SW7         N/A
GARDEN CITY    SUNNY     73  66  78 VRB3      29.97S
GREAT BEND     SUNNY     75  66  73 SW9       29.94S
LIBERAL        PTSUNNY   72  63  73 S9        29.99S
$$

KSZ066>073-081>083-090>101-031500-
SOUTHEAST KANSAS

CITY           SKY/WX    TMP DP  RH WIND       PRES   REMARKS
CHANUTE        SUNNY     80  67  64 S10       29.96R
COFFEYVILLE    SUNNY     79  69  71 S5        29.95S
HUTCHINSON     SUNNY     77  68  73 S6        29.95R
MEDICINE LODGE   N/A     76  68  76 S9        29.95R
NEWTON         SUNNY     77  64  65 S16       29.97S
PARSONS        SUNNY     79  69  71 SW6       29.97R
WICHITA INTL   PTSUNNY   78  68  71 S13       29.95S
WICHITA JABRA  MOSUNNY   79  66  64 S14       29.95S
WINFIELD       PTSUNNY   78  68  71 S8        29.97S
$$

KSZ007>012-019>026-033>040-048>060-102>105-031500-
NORTHEAST KANSAS

CITY           SKY/WX    TMP DP  RH WIND       PRES   REMARKS
CONCORDIA      SUNNY     76  68  76 CALM      29.94R
EMPORIA        SUNNY     78  66  66 S10       29.94R
LAWRENCE       SUNNY     78  68  71 E5        29.96R
MANHATTAN      SUNNY     79  69  71 W3        29.93R
OLATHE IND     SUNNY     78  67  68 CALM      29.98R
OLATHE EXE     SUNNY     77  67  71 CALM      29.98R
SALINA         SUNNY     77  68  73 CALM      29.94R
TOPEKA BILLARD SUNNY     79  70  74 E3        29.95R
TOPEKA FORBES  SUNNY     79  68  69 S7        29.95R
$$



USA.gov is the U.S. government's official web portal to all federal, state and local government web resources and services.